Find Starlink 2565

NORAD ID: 48280 Int'l Des: 2021-036 Owner: SPXS Country: US Constellation: starlink operational
LEOCIRCULARSTARLINK_TYPE

Live Position

Loading 3D Globe...

About Starlink 2565

Description loading...

Upcoming Passes

Passes for default location (London). Set your location on the main map for personalized predictions.

Altitude History

Loading altitude history...

Two-Line Element Set

1 48280U 21036E 26121.58080184 .00005712 00000-0 19562-3 0 9991
2 48280 53.1610 215.2937 0000977 85.2086 274.9027 15.31710121276133
Epoch: May 1, 2026 • Age: 15 hours

Current Status

Altitude 470.7 km
Velocity 7.63 km/s
Sub-Earth Point 10.90°N, 92.71°E
Launch Date Apr 29, 2021
Age 5 years
Type internet

Technical Details

Classification Payload
Mass 260.00 kg
Dry Mass 248.00 kg
Total Mass 260.00 kg
Length 0.20 m
Diameter 2.80 m
Span 9.00 m
Shape Box + pan
Manufacturer SPXS
Bus Type Starlink
Phase Status In Orbit
Owner/State SPXS/US

Most Searched